Regional Weather Roundup
Issued by NWS

Home | Current Version | Previous Version | Graphics & Text | Print | Product List | Glossary On
Versions: 1 2 3 4 5 6 7 8 9 10 11 12 13 14 15 16 17 18 19 20 21 22 23 24 25 26 27 28 29 30 31 32 33 34 35 36 37 38 39 40 41 42 43 44 45 46 47 48 49 50
000
ASUS43 KIND 220109
RWRIN

WEATHER ROUNDUP FOR INDIANA
NATIONAL WEATHER SERVICE INDIANAPOLIS IN
800 PM EST TUE FEB 21 2017

NOTE: "FAIR" INDICATES FEW OR NO CLOUDS BELOW 12,000 FEET WITH NO
SIGNIFICANT WEATHER AND/OR OBSTRUCTIONS TO VISIBILITY.

* - STATION DOES NOT REPORT WEATHER SUCH AS PRECIPITATION OR FOG.

+ - STATION NOT QUALITY CONTROLLED BY THE NATIONAL WEATHER SERVICE.
    USE DATA WITH CAUTION...ESPECIALLY DEWPOINT AND RELATIVE
    HUMIDITY OBSERVATIONS.

INZ001>003-010>013-019-020-220200-
NORTHWEST INDIANA

CITY           SKY/WX    TMP DP  RH WIND       PRES   REMARKS
GARY /AIRPORT/ MOCLDY    57  52  82 CALM      29.92R
KNOX *+        PTCLDY    54  34  47 S6        29.93S
LA PORTE +     PTCLDY    51  49  93 CALM      29.93S
MICHIGAN CITY+ MOCLDY    54  54 100 CALM      29.93S
MONTICELLO +   CLOUDY    56  50  80 SE3       29.92F
RENSSELAER +   CLOUDY    59  54  82 SE3       29.93S
VALPARAISO     PTCLDY    58  53  84 S7        29.92S

$$

LMZ046-743>745-220200-
SOUTHERN LAKE MICHIGAN

STATION/POSITION TIME  TEMP    WIND        PRES    WAVE
                       AIR SEA DIR/SP/G            HT
                 (UTC) (F)     (DEG/KT/KT) (MB)    (FT)
BURNS HARBOR     0040   56     110/  1/  6 1013.5S
MICHIGAN CITY    0040   56      90/  2/  3   N/A

$$

INZ004-005-014>016-021>024-220200-
NORTH CENTRAL INDIANA

CITY           SKY/WX    TMP DP  RH WIND       PRES   REMARKS
ELKHART        CLEAR     54  50  87 S5        29.93R
GOSHEN         PTCLDY    51  47  86 CALM      29.93S
LOGANSPORT +   CLOUDY    52  50  93 SE6       29.94F
PERU/GRISSOM   MOCLDY    53  53  99 SE3       29.93S
ROCHESTER +    PTCLDY    55  50  82 CALM      29.93F
SOUTH BEND     PTCLDY    52  49  89 S5        29.94R
WARSAW +       CLOUDY    55  50  82 CALM      29.94S

$$

INZ006>009-017-018-025>027-220200-
NORTHEAST INDIANA

CITY           SKY/WX    TMP DP  RH WIND       PRES   REMARKS
ANGOLA *+      PTCLDY    48  48 100 CALM      29.94F
AUBURN +       CLOUDY    52  48  87 CALM      29.95F
FORT WAYNE     CLOUDY    53  48  83 CALM      29.95S
HUNTINGTON +   CLOUDY    52  49  89 CALM      29.95R
KENDALLVILLE + CLOUDY    50  47  89 S5        29.95S

$$

INZ028-029-035-036-043>045-051>053-220200-
WEST CENTRAL INDIANA

CITY           SKY/WX    TMP DP  RH WIND       PRES   REMARKS
GREENCASTLE +  CLOUDY    55  52  88 S8        29.94F
LAFAYETTE      MOCLDY    54  50  86 CALM      29.93S
TERRE HAUTE    CLOUDY    57  52  83 S5        29.93F

$$

INZ030>032-037>040-046>048-054>057-064-065-220200-
CENTRAL INDIANA

CITY           SKY/WX    TMP DP  RH WIND       PRES   REMARKS
CP ATTERBURY + CLOUDY    54  52  94 E3        29.97S
COLUMBUS       CLOUDY    54  54 100 CALM      29.97S
FRANKFORT +    CLOUDY    56  51  84 CALM      29.96S
GREENWOOD *+   CLOUDY    57  55  91 S7        29.97R
INDIANAPOLIS   CLOUDY    58  52  80 S9        29.95R
-EAGLE CREEK   CLOUDY    60  52  74 S6        29.94S
KOKOMO +       CLOUDY    54  51  90 CALM      29.95S
MARION +       CLOUDY    54  47  78 S7        29.95S
MT COMFORT *+  CLOUDY    55  52  88 S7        29.96S
SHELBYVILLE    LGT RAIN  57  53  86 S8        29.96R
ZIONSVILLE +   CLOUDY    57  49  74 S5        29.96R

$$

INZ033-034-041-042-049-050-058-059-220200-
EAST CENTRAL INDIANA

CITY           SKY/WX    TMP DP  RH WIND       PRES   REMARKS
MUNCIE         CLOUDY    60  51  72 S8        29.95S

$$

INZ060-061-067>069-081>083-085>088-220200-
SOUTHWEST INDIANA

CITY           SKY/WX    TMP DP  RH WIND       PRES   REMARKS
EVANSVILLE     CLOUDY    62  54  74 CALM      29.94R
HUNTINGBURG *+ CLOUDY    61  55  81 SE9       29.94F
WASHINGTON +   LGT RAIN  56  54  94 SE7       29.95F

$$

INZ062-063-066-070>080-084-089>092-220200-
SOUTH CENTRAL AND SOUTHEAST INDIANA

CITY           SKY/WX    TMP DP  RH WIND       PRES   REMARKS
BEDFORD +      LGT RAIN N/A N/A N/A E5        29.96
BLOOMINGTON    LGT RAIN  56  52  86 CALM      29.96R
MADISON *+     CLOUDY    55  54  94 NE6       29.99S
NORTH VERNON + LGT RAIN N/A N/A N/A E3        29.98
SEYMOUR +      LGT RAIN  55  55 100 CALM      29.97R

$$





USA.gov is the U.S. government's official web portal to all federal, state and local government web resources and services.